Dallas/Ft Worth, TX

7:33 AM CDT on June 22, 2017 (GMT -0500)
Dallas-Fort Worth International

Weather History for KDFW - December, 2013

Change the Weather History Date:

Tuesday, December 31, 2013

  Actual Average Record
Temperature  
Mean Temperature 39 °F 45 °F  
Max Temperature 54 °F 56 °F 85 °F (1951)
Min Temperature 24 °F 35 °F 13 °F (1990)
Degree Days  
Heating Degree Days 26 20  
Month to date heating degree days 671 559  
Since 1 July heating degree days 1072 912  
Cooling Degree Days 0 0  
Month to date cooling degree days 0 4  
Year to date cooling degree days 2930 2756  
Moisture  
Dew Point 24 °F    
Average Humidity 54    
Maximum Humidity 75    
Minimum Humidity 32    
Precipitation  
Precipitation 0.00 in 0.07 in 1.55 in (1984)
Month to date precipitation 2.76 2.55  
Year to date precipitation 29.40 36.14  
Snow  
Snow 0.00 in 0.00 in 2.60 in (1946)
Month to date snowfall 2.1 0.3  
Since 1 July snowfall 2.1 0.3  
Snow Depth 0.00 in    
Sea Level Pressure  
Sea Level Pressure 30.34 in    
Wind  
Wind Speed 7 mph (South)    
Max Wind Speed 13 mph    
Max Gust Speed 18 mph    
Visibility 10 miles    
Events      
T = Trace of Precipitation, MM = Missing Value Source: NWS Daily Summary

Daily Weather History Graph

Daily Weather History Graph

Search for Another Location

Airport or City:

Trip Planner

Search our weather history database for the weather conditions in past years. The results will help you decide how hot, cold, wet, or windy it might be!

Date:

Astronomy

Dec. 31, 2013 Rise Set
Actual Time 7:30 AM CST 5:32 PM CST
Civil Twilight 7:03 AM CST 5:59 PM CST
Nautical Twilight 6:32 AM CST 6:30 PM CST
Astronomical Twilight 6:02 AM CST 7:00 PM CST
Moon 6:27 AM CST (12/31) 5:07 PM CST (12/31)
Length of Visible Light 10h 55m
Length of Day
10h 01m
Waning Crescent, 1% of the Moon is Illuminated
Dec 31
Waning Crescent
Jan 1
New
Jan 7
First Quarter
Jan 15
Full
Jan 23
Last Quarter

Hourly Weather History & Observations

Time (CST) Temp. Windchill Dew Point Humidity Pressure Visibility Wind Dir Wind Speed Gust Speed Precip Events Conditions
12:53 AM 32.0 °F 26.4 °F 24.1 °F 73% 30.41 in 10.0 mi NNW 5.8 mph - N/A   Clear
1:53 AM 30.9 °F 25.2 °F 21.9 °F 69% 30.39 in 10.0 mi NNW 5.8 mph - N/A   Clear
2:53 AM 28.9 °F - 19.9 °F 69% 30.40 in 10.0 mi Calm Calm - N/A   Partly Cloudy
3:53 AM 28.9 °F 25.2 °F 19.0 °F 67% 30.40 in 10.0 mi West 3.5 mph - N/A   Partly Cloudy
4:53 AM 26.1 °F 19.4 °F 19.0 °F 75% 30.42 in 10.0 mi SSW 5.8 mph - N/A   Partly Cloudy
5:53 AM 28.9 °F 22.8 °F 19.0 °F 67% 30.42 in 10.0 mi WSW 5.8 mph - N/A   Scattered Clouds
6:53 AM 28.0 °F 24.2 °F 19.0 °F 69% 30.42 in 10.0 mi West 3.5 mph - N/A   Partly Cloudy
7:53 AM 26.1 °F 17.6 °F 19.9 °F 78% 30.43 in 10.0 mi SSW 8.1 mph - N/A   Partly Cloudy
8:53 AM 33.1 °F 30.0 °F 25.0 °F 72% 30.44 in 10.0 mi SSW 3.5 mph - N/A   Partly Cloudy
9:53 AM 39.0 °F - 21.9 °F 50% 30.43 in 10.0 mi Calm Calm - N/A   Partly Cloudy
10:53 AM 43.0 °F 41.3 °F 23.0 °F 45% 30.44 in 10.0 mi South 3.5 mph - N/A   Partly Cloudy
11:53 AM 46.9 °F - 21.9 °F 37% 30.42 in 10.0 mi South 8.1 mph - N/A   Partly Cloudy
12:53 PM 50.0 °F - 21.9 °F 33% 30.36 in 10.0 mi SSE 8.1 mph - N/A   Partly Cloudy
1:53 PM 52.0 °F - 24.1 °F 34% 30.32 in 10.0 mi South 8.1 mph - N/A   Partly Cloudy
2:53 PM 54.0 °F - 25.0 °F 33% 30.30 in 10.0 mi South 12.7 mph - N/A   Partly Cloudy
3:53 PM 53.1 °F - 24.1 °F 32% 30.27 in 10.0 mi SSE 9.2 mph - N/A   Partly Cloudy
4:53 PM 51.1 °F - 26.1 °F 38% 30.27 in 10.0 mi SSE 12.7 mph - N/A   Partly Cloudy
5:53 PM 46.0 °F 41.0 °F 27.0 °F 47% 30.26 in 10.0 mi SSE 10.4 mph - N/A   Partly Cloudy
6:53 PM 43.0 °F 37.7 °F 27.0 °F 53% 30.26 in 10.0 mi SSE 9.2 mph - N/A   Clear
7:53 PM 42.1 °F 38.4 °F 27.0 °F 55% 30.27 in 10.0 mi SE 5.8 mph - N/A   Clear
8:53 PM 43.0 °F 37.7 °F 27.0 °F 53% 30.25 in 10.0 mi SSE 9.2 mph - N/A   Clear
9:53 PM 43.0 °F 36.8 °F 26.1 °F 51% 30.22 in 10.0 mi South 11.5 mph - N/A   Clear
10:53 PM 41.0 °F 35.2 °F 26.1 °F 55% 30.23 in 10.0 mi SSE 9.2 mph - N/A   Clear
11:53 PM 39.9 °F 33.4 °F 28.0 °F 63% 30.19 in 10.0 mi SSE 10.4 mph - N/A   Clear